Location: Ailly
(50.0793°N, 1.9944°E)
Time: 21:56:53
(UTC+00:00)

Landsat 7 - Pass Details

Date: 15 January 2026
Orbit: 680 x 682 km, 97.9° (Epoch: 17 February)

Event Time Altitude Azimuth Distance (km) Brightness Sun altitude
Rises 06:35:20 0° 12° (NNE) 3,056 7.0 -10.8°
Reaches altitude 10° 06:37:35 10° 11° (NNE) 2,135 6.2 -10.5°
Maximum altitude 06:42:15 78° 286° (WNW) 703 3.7 -9.8°
Drops below altitude 10° 06:46:53 10° 201° (SSW) 2,117 6.3 -9.1°
Sets 06:49:06 0° 200° (SSW) 3,028 7.1 -8.8°
